Regional Weather Roundup
Issued by NWS

Home | Current Version | Previous Version | Text Only | Print | Product List | Glossary Off
Versions: 1 2 3 4 5 6 7 8 9 10 11 12 13 14 15 16 17 18 19 20 21 22 23 24 25 26 27 28 29 30 31 32 33 34 35 36 37 38 39 40 41 42 43 44 45 46 47 48 49 50

000
ASUS43 KOAX 271202
RWRNE

WEATHER ROUNDUP FOR NEBRASKA
NATIONAL WEATHER SERVICE OMAHA NE
700 AM CDT FRI MAR 27 2015

NOTES: SATELLITE DATA IS BEING USED TO AUGMENT CLOUD COVER ABOVE
       12000 FEET.
       "FAIR" INDICATES FEW OR NO CLOUDS BELOW 12,000 FEET WITH NO
       SIGNIFICANT WEATHER AND/OR OBSTRUCTIONS TO VISIBILITY.

  * THESE STATIONS DO NOT REPORT WEATHER SUCH AS RAIN...SNOW OR FOG.

NEZ001>004-019>022-054>056-271300-
NEBRASKA PANHANDLE

CITY           SKY/WX    TMP DP  RH WIND       PRES   REMARKS
SCOTTSBLUFF    LGT RAIN  37  36  96 E5        30.14F WCI  33
6HR MIN TEMP:  36; 6HR MAX TEMP:  41; 6HR PCP:  0.01;

ALLIANCE       CLOUDY    36  32  85 S8        30.12F WCI  30
6HR MIN TEMP:  35; 6HR MAX TEMP:  37; 6HR PCP: TRACE;

CHADRON        CLOUDY    42  36  79 SW5       30.08F
6HR MIN TEMP:  37; 6HR MAX TEMP:  42; 6HR PCP: TRACE;

KIMBALL        CLOUDY    36  32  87 S5        30.13S WCI  32
SIDNEY         CLOUDY    35  32  88 SW10      30.16S WCI  27
6HR MIN TEMP:  35; 6HR MAX TEMP:  39; 6HR PCP:  0.02;

$$

NEZ057>060-069>072-079>082-271300-
SOUTHWEST NEBRASKA

CITY           SKY/WX    TMP DP  RH WIND       PRES   REMARKS
NORTH PLATTE   FLURRIES  31  28  89 S5        30.21F WCI  26
6HR MIN TEMP:  30; 6HR MAX TEMP:  33; 6HR PCP: TRACE;

IMPERIAL         N/A     33  30  88 S6        30.20F WCI  28
6HR MIN TEMP:  32; 6HR MAX TEMP:  37; 6HR PCP:  0.02;

MCCOOK         CLOUDY    32  30  92 E5        30.24R WCI  27
6HR MIN TEMP:  32; 6HR MAX TEMP:  36; 6HR PCP: TRACE;

$$

NEZ005>010-023>029-035>040-094-271300-
NORTH CENTRAL NEBRASKA

CITY           SKY/WX    TMP DP  RH WIND       PRES   REMARKS
VALENTINE      CLOUDY    33  27  78 S6        30.18F WCI  28
6HR MIN TEMP:  30; 6HR MAX TEMP:  33;

AINSWORTH      CLOUDY    32  29  88 S5        30.20F WCI  27
BROKEN BOW     CLOUDY    32  25  75 CALM      30.22F
6HR MIN TEMP:  31; 6HR MAX TEMP:  33;

O`NEILL        MOCLDY    23  21  93 CALM      30.26S
ORD            MOCLDY    23  19  85 CALM      30.25R
6HR MIN TEMP:  20; 6HR MAX TEMP:  29;

$$

NEZ041-046>049-061>064-073>077-083>087-271300-
SOUTH CENTRAL NEBRASKA

CITY           SKY/WX    TMP DP  RH WIND       PRES   REMARKS
GRAND ISLAND   PTCLDY    21  19  92 N6        30.28R WCI  13
6HR MIN TEMP:  21; 6HR MAX TEMP:  28;

HASTINGS       MOCLDY    26  22  84 CALM      30.26R
6HR MIN TEMP:  26; 6HR MAX TEMP:  30;

HEBRON         MOCLDY    28  25  86 N3        30.28R
KEARNEY *      CLOUDY    28  23  80 N5        30.26S WCI  23
$$

NEZ011>018-030>034-042>045-271300-
NORTHEAST NEBRASKA

CITY           SKY/WX    TMP DP  RH WIND       PRES   REMARKS
NORFOLK        CLEAR     19  15  84 W3        30.28R
6HR MIN TEMP:  19; 6HR MAX TEMP:  31;

ALBION         CLEAR     20  16  84 CALM      30.28R
BLAIR          CLEAR     23  18  80 NW6       30.27R WCI  16
COLUMBUS *     PTCLDY    19  10  68 N5        30.31R WCI  13
TEKAMAH        CLEAR     17  12  80 SW12      30.30R WCI   4
6HR MIN TEMP:  17; 6HR MAX TEMP:  30;

$$

NEZ050>053-065>068-078-088>093-271300-
SOUTHEAST NEBRASKA

CITY           SKY/WX    TMP DP  RH WIND       PRES   REMARKS
LINCOLN        PTCLDY    25  19  78 N7        30.31R WCI  17
6HR MIN TEMP:  24; 6HR MAX TEMP:  32;

OMAHA EPPLEY   PTCLDY    22  17  81 N6        30.29R WCI  14
6HR MIN TEMP:  22; 6HR MAX TEMP:  32;

FALLS CITY     CLEAR     27  20  75 N9        30.26R WCI  18
6HR MIN TEMP:  27; 6HR MAX TEMP:  34;

PLATTSMOUTH    PTCLDY    22  16  77 NW6       30.27R WCI  14
$$

NEZ044-045-051>053-067-271300-
OMAHA AREA

CITY           SKY/WX    TMP DP  RH WIND       PRES   REMARKS
OMAHA EPPLEY   PTCLDY    22  17  81 N6        30.29R WCI  14
6HR MIN TEMP:  22; 6HR MAX TEMP:  32;

BLAIR          CLEAR     23  18  80 NW6       30.27R WCI  16
PLATTSMOUTH    PTCLDY    22  16  77 NW6       30.27R WCI  14
$$


USA.gov is the U.S. government's official web portal to all federal, state and local government web resources and services.